Вернуться в каталог

STARLINK-35782

АктивенСвязьVLEO
NORAD 67182·PAYLOAD·🇺🇸 United States

Запущен Dec 17, 2025 с Cape Canaveral Space Force Station

Loading…

Ближайшие Пролёты (ближайшие 24 часа)

TLE

СвежийSource: CelesTrak SupGP

Эпоха: Sep 15, 2026, 04:07 UTC

1 67182C 25303V   26258.17201389  .00025338  00000+0  91761-3 0  2586
2 67182  43.0014 320.2622 0001217 263.5744 257.5609 15.27571180    19

Отслеживайте STARLINK-35782 в реальном времени с AllMySat

Download on the App Store